Year,Month,Day,Hour,Minute,Value (Times are PST for temperature in C)
2019,03,30,00,00,9.80
2019,03,30,00,01,9.80
2019,03,30,00,02,9.80
2019,03,30,00,03,9.80
2019,03,30,00,04,9.80
2019,03,30,00,05,9.80
2019,03,30,00,06,9.80
2019,03,30,00,07,9.70
2019,03,30,00,08,9.70
2019,03,30,00,09,9.70
2019,03,30,00,10,9.60
2019,03,30,00,11,9.50
2019,03,30,00,12,9.40
2019,03,30,00,13,9.40
2019,03,30,00,14,9.30
2019,03,30,00,15,9.30
2019,03,30,00,16,9.20
2019,03,30,00,17,9.20
2019,03,30,00,18,9.10
2019,03,30,00,19,9.10
2019,03,30,00,20,9.00
2019,03,30,00,21,9.00
2019,03,30,00,22,8.90
2019,03,30,00,23,8.90
2019,03,30,00,24,8.80
2019,03,30,00,25,8.80
2019,03,30,00,26,8.70
2019,03,30,00,27,8.70
2019,03,30,00,28,8.70
2019,03,30,00,29,8.60
2019,03,30,00,30,8.60
2019,03,30,00,31,8.50
2019,03,30,00,32,8.50
2019,03,30,00,33,8.40
2019,03,30,00,34,8.30
2019,03,30,00,35,8.30
2019,03,30,00,36,8.20
2019,03,30,00,37,8.20
2019,03,30,00,38,8.20
2019,03,30,00,39,8.10
2019,03,30,00,40,8.10
2019,03,30,00,41,8.00
2019,03,30,00,42,8.00
2019,03,30,00,43,7.90
2019,03,30,00,44,7.90
2019,03,30,00,45,7.90
2019,03,30,00,46,7.80
2019,03,30,00,47,7.80
2019,03,30,00,48,7.80
2019,03,30,00,49,7.80
2019,03,30,00,50,7.80
2019,03,30,00,51,7.80
2019,03,30,00,52,7.70
2019,03,30,00,53,7.70
2019,03,30,00,54,7.70
2019,03,30,00,55,7.70
2019,03,30,00,56,7.70
2019,03,30,00,57,7.70
2019,03,30,00,58,7.70
2019,03,30,00,59,7.70
2019,03,30,01,00,7.70
2019,03,30,01,01,7.70
2019,03,30,01,02,7.70
2019,03,30,01,03,7.70
2019,03,30,01,04,7.60
2019,03,30,01,05,7.60
2019,03,30,01,06,7.60
2019,03,30,01,07,7.60
2019,03,30,01,08,7.60
2019,03,30,01,09,7.60
2019,03,30,01,10,7.50
2019,03,30,01,11,7.50
2019,03,30,01,12,7.50
2019,03,30,01,13,7.50
2019,03,30,01,14,7.40
2019,03,30,01,15,7.40
2019,03,30,01,16,7.40
2019,03,30,01,17,7.30
2019,03,30,01,18,7.30
2019,03,30,01,19,7.30
2019,03,30,01,20,7.30
2019,03,30,01,21,7.30
2019,03,30,01,22,7.30
2019,03,30,01,23,7.30
2019,03,30,01,24,7.30
2019,03,30,01,25,7.20
2019,03,30,01,26,7.20
2019,03,30,01,27,7.10
2019,03,30,01,28,7.10
2019,03,30,01,29,7.00
2019,03,30,01,30,7.00
2019,03,30,01,31,7.00
2019,03,30,01,32,6.90
2019,03,30,01,33,6.90
2019,03,30,01,34,6.80
2019,03,30,01,35,6.80
2019,03,30,01,36,6.80
2019,03,30,01,37,6.80
2019,03,30,01,38,6.80
2019,03,30,01,39,6.80
2019,03,30,01,40,6.80
2019,03,30,01,41,6.80
2019,03,30,01,42,6.80
2019,03,30,01,43,6.80
2019,03,30,01,44,6.80
2019,03,30,01,45,6.80
2019,03,30,01,46,6.80
2019,03,30,01,47,6.80
2019,03,30,01,48,6.70
2019,03,30,01,49,6.70
2019,03,30,01,50,6.70
2019,03,30,01,51,6.70
2019,03,30,01,52,6.60
2019,03,30,01,53,6.60
2019,03,30,01,54,6.60
2019,03,30,01,55,6.60
2019,03,30,01,56,6.60
2019,03,30,01,57,6.60
2019,03,30,01,58,6.60
2019,03,30,01,59,6.60
2019,03,30,02,00,6.60
2019,03,30,02,01,6.50
2019,03,30,02,02,6.40
2019,03,30,02,03,6.40
2019,03,30,02,04,6.40
2019,03,30,02,05,6.40
2019,03,30,02,06,6.40
2019,03,30,02,07,6.40
2019,03,30,02,08,6.40
2019,03,30,02,09,6.40
2019,03,30,02,10,6.40
2019,03,30,02,11,6.40
2019,03,30,02,12,6.40
2019,03,30,02,13,6.40
2019,03,30,02,14,6.40
2019,03,30,02,15,6.40
2019,03,30,02,16,6.40
2019,03,30,02,17,6.40
2019,03,30,02,18,6.40
2019,03,30,02,19,6.40
2019,03,30,02,20,6.40
2019,03,30,02,21,6.40
2019,03,30,02,22,6.40
2019,03,30,02,23,6.40
2019,03,30,02,24,6.40
2019,03,30,02,25,6.40
2019,03,30,02,26,6.30
2019,03,30,02,27,6.30
2019,03,30,02,28,6.20
2019,03,30,02,29,6.20
2019,03,30,02,30,6.20
2019,03,30,02,31,6.20
2019,03,30,02,32,6.10
2019,03,30,02,33,6.10
2019,03,30,02,34,6.10
2019,03,30,02,35,6.00
2019,03,30,02,36,6.00
2019,03,30,02,37,6.00
2019,03,30,02,38,6.00
2019,03,30,02,39,5.90
2019,03,30,02,40,5.90
2019,03,30,02,41,5.90
2019,03,30,02,42,5.90
2019,03,30,02,43,5.90
2019,03,30,02,44,5.90
2019,03,30,02,45,5.90
2019,03,30,02,46,5.90
2019,03,30,02,47,5.90
2019,03,30,02,48,5.90
2019,03,30,02,49,5.90
2019,03,30,02,50,5.90
2019,03,30,02,51,5.90
2019,03,30,02,52,5.90
2019,03,30,02,53,5.90
2019,03,30,02,54,5.80
2019,03,30,02,55,5.80
2019,03,30,02,56,5.80
2019,03,30,02,57,5.80
2019,03,30,02,58,5.70
2019,03,30,02,59,5.70
2019,03,30,03,00,5.70
2019,03,30,03,01,5.70
2019,03,30,03,02,5.70
2019,03,30,03,03,5.70
2019,03,30,03,04,5.70
2019,03,30,03,05,5.70
2019,03,30,03,06,5.70
2019,03,30,03,07,5.70
2019,03,30,03,08,5.60
2019,03,30,03,09,5.60
2019,03,30,03,10,5.60
2019,03,30,03,11,5.60
2019,03,30,03,12,5.60
2019,03,30,03,13,5.50
2019,03,30,03,14,5.50
2019,03,30,03,15,5.50
2019,03,30,03,16,5.50
2019,03,30,03,17,5.50
2019,03,30,03,18,5.50
2019,03,30,03,19,5.40
2019,03,30,03,20,5.40
2019,03,30,03,21,5.40
2019,03,30,03,22,5.40
2019,03,30,03,23,5.50
2019,03,30,03,24,5.50
2019,03,30,03,25,5.50
2019,03,30,03,26,5.50
2019,03,30,03,27,5.50
2019,03,30,03,28,5.60
2019,03,30,03,29,5.60
2019,03,30,03,30,5.60
2019,03,30,03,31,5.60
2019,03,30,03,32,5.60
2019,03,30,03,33,5.60
2019,03,30,03,34,5.60
2019,03,30,03,35,5.60
2019,03,30,03,36,5.60
2019,03,30,03,37,5.60
2019,03,30,03,38,5.60
2019,03,30,03,39,5.60
2019,03,30,03,40,5.60
2019,03,30,03,41,5.60
2019,03,30,03,42,5.60
2019,03,30,03,43,5.70
2019,03,30,03,44,5.70
2019,03,30,03,45,5.70
2019,03,30,03,46,5.70
2019,03,30,03,47,5.70
2019,03,30,03,48,5.70
2019,03,30,03,49,5.60
2019,03,30,03,50,5.60
2019,03,30,03,51,5.60
2019,03,30,03,52,5.60
2019,03,30,03,53,5.50
2019,03,30,03,54,5.50
2019,03,30,03,55,5.50
2019,03,30,03,56,5.50
2019,03,30,03,57,5.50
2019,03,30,03,58,5.50
2019,03,30,03,59,5.40
2019,03,30,04,00,5.40
2019,03,30,04,01,5.40
2019,03,30,04,02,5.50
2019,03,30,04,03,5.50
2019,03,30,04,04,5.50
2019,03,30,04,05,5.60
2019,03,30,04,06,5.60
2019,03,30,04,07,5.60
2019,03,30,04,08,5.50
2019,03,30,04,09,5.50
2019,03,30,04,10,5.40
2019,03,30,04,11,5.30
2019,03,30,04,12,5.30
2019,03,30,04,13,5.30
2019,03,30,04,14,5.20
2019,03,30,04,15,5.20
2019,03,30,04,16,5.20
2019,03,30,04,17,5.20
2019,03,30,04,18,5.20
2019,03,30,04,19,5.20
2019,03,30,04,20,5.30
2019,03,30,04,21,5.30
2019,03,30,04,22,5.30
2019,03,30,04,23,5.30
2019,03,30,04,24,5.30
2019,03,30,04,25,5.40
2019,03,30,04,26,5.50
2019,03,30,04,27,5.60
2019,03,30,04,28,5.60
2019,03,30,04,29,5.70
2019,03,30,04,30,5.70
2019,03,30,04,31,5.70
2019,03,30,04,32,5.60
2019,03,30,04,33,5.60
2019,03,30,04,34,5.50
2019,03,30,04,35,5.40
2019,03,30,04,36,5.40
2019,03,30,04,37,5.30
2019,03,30,04,38,5.30
2019,03,30,04,39,5.30
2019,03,30,04,40,5.30
2019,03,30,04,41,5.30
2019,03,30,04,42,5.30
2019,03,30,04,43,5.30
2019,03,30,04,44,5.30
2019,03,30,04,45,5.30
2019,03,30,04,46,5.40
2019,03,30,04,47,5.40
2019,03,30,04,48,5.40
2019,03,30,04,49,5.40
2019,03,30,04,50,5.40
2019,03,30,04,51,5.40
2019,03,30,04,52,5.40
2019,03,30,04,53,5.40
2019,03,30,04,54,5.40
2019,03,30,04,55,5.40
2019,03,30,04,56,5.40
2019,03,30,04,57,5.40
2019,03,30,04,58,5.40
2019,03,30,04,59,5.50
2019,03,30,05,00,5.50
2019,03,30,05,01,5.50
2019,03,30,05,02,5.50
2019,03,30,05,03,5.50
2019,03,30,05,04,5.50
2019,03,30,05,05,5.40
2019,03,30,05,06,5.40
2019,03,30,05,07,5.40
2019,03,30,05,08,5.40
2019,03,30,05,09,5.30
2019,03,30,05,10,5.30
2019,03,30,05,11,5.30
2019,03,30,05,12,5.20
2019,03,30,05,13,5.20
2019,03,30,05,14,5.10
2019,03,30,05,15,5.10
2019,03,30,05,16,5.10
2019,03,30,05,17,5.10
2019,03,30,05,18,5.10
2019,03,30,05,19,5.10
2019,03,30,05,20,5.10
2019,03,30,05,21,5.10
2019,03,30,05,22,5.10
2019,03,30,05,23,5.00
2019,03,30,05,24,4.90
2019,03,30,05,25,4.90
2019,03,30,05,26,4.90
2019,03,30,05,27,4.90
2019,03,30,05,28,4.90
2019,03,30,05,29,4.90
2019,03,30,05,30,4.90
2019,03,30,05,31,4.90
2019,03,30,05,32,4.90
2019,03,30,05,33,4.80
2019,03,30,05,34,4.80
2019,03,30,05,35,4.80
2019,03,30,05,36,4.70
2019,03,30,05,37,4.70
2019,03,30,05,38,4.70
2019,03,30,05,39,4.70
2019,03,30,05,40,4.80
2019,03,30,05,41,4.80
2019,03,30,05,42,4.90
2019,03,30,05,43,4.90
2019,03,30,05,44,4.90
2019,03,30,05,45,5.00
2019,03,30,05,46,5.10
2019,03,30,05,47,5.10
2019,03,30,05,48,5.10
2019,03,30,05,49,5.10
2019,03,30,05,50,5.10
2019,03,30,05,51,5.10
2019,03,30,05,52,5.10
2019,03,30,05,53,5.00
2019,03,30,05,54,4.90
2019,03,30,05,55,4.90
2019,03,30,05,56,4.80
2019,03,30,05,57,4.80
2019,03,30,05,58,4.70
2019,03,30,05,59,4.60
2019,03,30,06,00,4.60
2019,03,30,06,01,4.50
2019,03,30,06,02,4.50
2019,03,30,06,03,4.50
2019,03,30,06,04,4.50
2019,03,30,06,05,4.50
2019,03,30,06,06,4.60
2019,03,30,06,07,4.60
2019,03,30,06,08,4.60
2019,03,30,06,09,4.70
2019,03,30,06,10,4.70
2019,03,30,06,11,4.70
2019,03,30,06,12,4.80
2019,03,30,06,13,4.80
2019,03,30,06,14,4.80
2019,03,30,06,15,4.80
2019,03,30,06,16,4.90
2019,03,30,06,17,4.90
2019,03,30,06,18,4.90
2019,03,30,06,19,5.00
2019,03,30,06,20,5.10
2019,03,30,06,21,5.00
2019,03,30,06,22,4.90
2019,03,30,06,23,4.90
2019,03,30,06,24,4.90
2019,03,30,06,25,4.90
2019,03,30,06,26,4.90
2019,03,30,06,27,4.90
2019,03,30,06,28,4.90
2019,03,30,06,29,4.90
2019,03,30,06,30,4.90
2019,03,30,06,31,4.90
2019,03,30,06,32,4.90
2019,03,30,06,33,4.90
2019,03,30,06,34,4.90
2019,03,30,06,35,4.90
2019,03,30,06,36,4.90
2019,03,30,06,37,4.90
2019,03,30,06,38,4.90
2019,03,30,06,39,4.90
2019,03,30,06,40,4.90
2019,03,30,06,41,4.90
2019,03,30,06,42,4.90
2019,03,30,06,43,4.90
2019,03,30,06,44,4.90
2019,03,30,06,45,4.90
2019,03,30,06,46,4.90
2019,03,30,06,47,4.90
2019,03,30,06,48,4.90
2019,03,30,06,49,4.80
2019,03,30,06,50,4.80
2019,03,30,06,51,4.80
2019,03,30,06,52,4.80
2019,03,30,06,53,4.70
2019,03,30,06,54,4.70
2019,03,30,06,55,4.60
2019,03,30,06,56,4.60
2019,03,30,06,57,4.60
2019,03,30,06,58,4.50
2019,03,30,06,59,4.50
2019,03,30,07,00,4.40
2019,03,30,07,01,4.30
2019,03,30,07,02,4.30
2019,03,30,07,03,4.20
2019,03,30,07,04,4.20
2019,03,30,07,05,4.20
2019,03,30,07,06,4.20
2019,03,30,07,07,4.20
2019,03,30,07,08,4.20
2019,03,30,07,09,4.30
2019,03,30,07,10,4.30
2019,03,30,07,11,4.30
2019,03,30,07,12,4.30
2019,03,30,07,13,4.30
2019,03,30,07,14,4.40
2019,03,30,07,15,4.40
2019,03,30,07,16,4.40
2019,03,30,07,17,4.40
2019,03,30,07,18,4.40
2019,03,30,07,19,4.50
2019,03,30,07,20,4.50
2019,03,30,07,21,4.50
2019,03,30,07,22,4.60
2019,03,30,07,23,4.60
2019,03,30,07,24,4.70
2019,03,30,07,25,4.70
2019,03,30,07,26,4.80
2019,03,30,07,27,4.80
2019,03,30,07,28,4.90
2019,03,30,07,29,4.90
2019,03,30,07,30,4.90
2019,03,30,07,31,5.00
2019,03,30,07,32,5.10
2019,03,30,07,33,5.10
2019,03,30,07,34,5.10
2019,03,30,07,35,5.20
2019,03,30,07,36,5.20
2019,03,30,07,37,5.30
2019,03,30,07,38,5.30
2019,03,30,07,39,5.40
2019,03,30,07,40,5.50
2019,03,30,07,41,5.60
2019,03,30,07,42,5.60
2019,03,30,07,43,5.70
2019,03,30,07,44,5.80
2019,03,30,07,45,5.90
2019,03,30,07,46,5.90
2019,03,30,07,47,6.00
2019,03,30,07,48,6.10
2019,03,30,07,49,6.20
2019,03,30,07,50,6.20
2019,03,30,07,51,6.30
2019,03,30,07,52,6.30
2019,03,30,07,53,6.20
2019,03,30,07,54,6.20
2019,03,30,07,55,6.20
2019,03,30,07,56,6.20
2019,03,30,07,57,6.20
2019,03,30,07,58,6.20
2019,03,30,07,59,6.30
2019,03,30,08,00,6.30
2019,03,30,08,01,6.30
2019,03,30,08,02,6.40
2019,03,30,08,03,6.50
2019,03,30,08,04,6.60
2019,03,30,08,05,6.60
2019,03,30,08,06,6.70
2019,03,30,08,07,6.80
2019,03,30,08,08,6.80
2019,03,30,08,09,6.90
2019,03,30,08,10,7.00
2019,03,30,08,11,7.00
2019,03,30,08,12,7.10
2019,03,30,08,13,7.20
2019,03,30,08,14,7.20
2019,03,30,08,15,7.20
2019,03,30,08,16,7.20
2019,03,30,08,17,7.30
2019,03,30,08,18,7.30
2019,03,30,08,19,7.30
2019,03,30,08,20,7.40
2019,03,30,08,21,7.50
2019,03,30,08,22,7.50
2019,03,30,08,23,7.50
2019,03,30,08,24,7.50
2019,03,30,08,25,7.60
2019,03,30,08,26,7.60
2019,03,30,08,27,7.70
2019,03,30,08,28,7.80
2019,03,30,08,29,7.90
2019,03,30,08,30,8.00
2019,03,30,08,31,8.20
2019,03,30,08,32,8.30
2019,03,30,08,33,8.50
2019,03,30,08,34,8.60
2019,03,30,08,35,8.70
2019,03,30,08,36,8.80
2019,03,30,08,37,8.90
2019,03,30,08,38,9.00
2019,03,30,08,39,9.20
2019,03,30,08,40,9.20
2019,03,30,08,41,9.30
2019,03,30,08,42,9.40
2019,03,30,08,43,9.50
2019,03,30,08,44,9.50
2019,03,30,08,45,9.40
2019,03,30,08,46,9.30
2019,03,30,08,47,9.30
2019,03,30,08,48,9.30
2019,03,30,08,49,9.30
2019,03,30,08,50,9.30
2019,03,30,08,51,9.30
2019,03,30,08,52,9.30
2019,03,30,08,53,9.40
2019,03,30,08,54,9.40
2019,03,30,08,55,9.50
2019,03,30,08,56,9.50
2019,03,30,08,57,9.50
2019,03,30,08,58,9.50
2019,03,30,08,59,9.50
2019,03,30,09,00,9.50
2019,03,30,09,01,9.60
2019,03,30,09,02,9.70
2019,03,30,09,03,9.70
2019,03,30,09,04,9.80
2019,03,30,09,05,9.90
2019,03,30,09,06,9.90
2019,03,30,09,07,10.00
2019,03,30,09,08,10.10
2019,03,30,09,09,10.20
2019,03,30,09,10,10.30
2019,03,30,09,11,10.30
2019,03,30,09,12,10.40
2019,03,30,09,13,10.40
2019,03,30,09,14,10.50
2019,03,30,09,15,10.60
2019,03,30,09,16,10.60
2019,03,30,09,17,10.60
2019,03,30,09,18,10.50
2019,03,30,09,19,10.40
2019,03,30,09,20,10.40
2019,03,30,09,21,10.50
2019,03,30,09,22,10.60
2019,03,30,09,23,10.60
2019,03,30,09,24,10.60
2019,03,30,09,25,10.60
2019,03,30,09,26,10.60
2019,03,30,09,27,10.60
2019,03,30,09,28,10.50
2019,03,30,09,29,10.40
2019,03,30,09,30,10.40
2019,03,30,09,31,10.50
2019,03,30,09,32,10.60
2019,03,30,09,33,10.60
2019,03,30,09,34,10.60
2019,03,30,09,35,10.60
2019,03,30,09,36,10.60
2019,03,30,09,37,10.70
2019,03,30,09,38,10.70
2019,03,30,09,39,10.70
2019,03,30,09,40,10.80
2019,03,30,09,41,10.80
2019,03,30,09,42,10.80
2019,03,30,09,43,10.90
2019,03,30,09,44,10.90
2019,03,30,09,45,10.90
2019,03,30,09,46,10.90
2019,03,30,09,47,10.90
2019,03,30,09,48,11.10
2019,03,30,09,49,11.10
2019,03,30,09,50,11.10
2019,03,30,09,51,11.10
2019,03,30,09,52,11.10
2019,03,30,09,53,10.90
2019,03,30,09,54,10.90
2019,03,30,09,55,10.90
2019,03,30,09,56,10.90
2019,03,30,09,57,10.90
2019,03,30,09,58,10.90
2019,03,30,09,59,11.10
2019,03,30,10,00,11.00
2019,03,30,10,01,10.90
2019,03,30,10,02,11.00
2019,03,30,10,03,11.10
2019,03,30,10,04,11.10
2019,03,30,10,05,11.10
2019,03,30,10,06,11.10
2019,03,30,10,07,11.10
2019,03,30,10,08,11.10
2019,03,30,10,09,11.10
2019,03,30,10,10,11.20
2019,03,30,10,11,11.10
2019,03,30,10,12,11.10
2019,03,30,10,13,11.10
2019,03,30,10,14,11.20
2019,03,30,10,15,11.30
2019,03,30,10,16,11.30
2019,03,30,10,17,11.40
2019,03,30,10,18,11.50
2019,03,30,10,19,11.50
2019,03,30,10,20,11.40
2019,03,30,10,21,11.30
2019,03,30,10,22,11.20
2019,03,30,10,23,11.30
2019,03,30,10,24,11.30
2019,03,30,10,25,11.30
2019,03,30,10,26,11.20
2019,03,30,10,27,11.10
2019,03,30,10,28,11.10
2019,03,30,10,29,11.00
2019,03,30,10,30,10.90
2019,03,30,10,31,10.90
2019,03,30,10,32,10.90
2019,03,30,10,33,10.80
2019,03,30,10,34,10.80
2019,03,30,10,35,10.70
2019,03,30,10,36,10.70
2019,03,30,10,37,10.70
2019,03,30,10,38,10.70
2019,03,30,10,39,10.70
2019,03,30,10,40,10.70
2019,03,30,10,41,10.80
2019,03,30,10,42,10.80
2019,03,30,10,43,10.80
2019,03,30,10,44,10.80
2019,03,30,10,45,10.70
2019,03,30,10,46,10.70
2019,03,30,10,47,10.60
2019,03,30,10,48,10.70
2019,03,30,10,49,10.70
2019,03,30,10,50,10.80
2019,03,30,10,51,10.70
2019,03,30,10,52,10.70
2019,03,30,10,53,10.70
2019,03,30,10,54,10.60
2019,03,30,10,55,10.70
2019,03,30,10,56,10.70
2019,03,30,10,57,10.70
2019,03,30,10,58,10.80
2019,03,30,10,59,10.80
2019,03,30,11,00,10.70
2019,03,30,11,01,10.60
2019,03,30,11,02,10.60
2019,03,30,11,03,10.60
2019,03,30,11,04,10.60
2019,03,30,11,05,10.60
2019,03,30,11,06,10.60
2019,03,30,11,07,10.70
2019,03,30,11,08,10.70
2019,03,30,11,09,10.80
2019,03,30,11,10,10.80
2019,03,30,11,11,10.80
2019,03,30,11,12,10.80
2019,03,30,11,13,10.80
2019,03,30,11,14,10.90
2019,03,30,11,15,10.90
2019,03,30,11,16,11.00
2019,03,30,11,17,11.10
2019,03,30,11,18,11.20
2019,03,30,11,19,11.20
2019,03,30,11,20,11.20
2019,03,30,11,21,11.30
2019,03,30,11,22,11.40
2019,03,30,11,23,11.40
2019,03,30,11,24,11.30
2019,03,30,11,25,11.30
2019,03,30,11,26,11.40
2019,03,30,11,27,11.40
2019,03,30,11,28,11.40
2019,03,30,11,29,11.50
2019,03,30,11,30,11.60
2019,03,30,11,31,11.60
2019,03,30,11,32,11.60
2019,03,30,11,33,11.60
2019,03,30,11,34,11.70
2019,03,30,11,35,11.80
2019,03,30,11,36,11.80
2019,03,30,11,37,11.80
2019,03,30,11,38,11.90
2019,03,30,11,39,12.00
2019,03,30,11,40,12.10
2019,03,30,11,41,12.20
2019,03,30,11,42,12.30
2019,03,30,11,43,12.30
2019,03,30,11,44,12.40
2019,03,30,11,45,12.40
2019,03,30,11,46,12.40
2019,03,30,11,47,12.50
2019,03,30,11,48,12.60
2019,03,30,11,49,12.60
2019,03,30,11,50,12.70
2019,03,30,11,51,12.80
2019,03,30,11,52,12.80
2019,03,30,11,53,12.80
2019,03,30,11,54,12.80
2019,03,30,11,55,12.80
2019,03,30,11,56,12.90
2019,03,30,11,57,13.00
2019,03,30,11,58,12.90
2019,03,30,11,59,12.90
2019,03,30,12,00,12.80
2019,03,30,12,01,12.70
2019,03,30,12,02,12.60
2019,03,30,12,03,12.50
2019,03,30,12,04,12.40
2019,03,30,12,05,12.20
2019,03,30,12,06,12.20
2019,03,30,12,07,12.20
2019,03,30,12,08,12.20
2019,03,30,12,09,12.20
2019,03,30,12,10,12.30
2019,03,30,12,11,12.40
2019,03,30,12,12,12.60
2019,03,30,12,13,12.80
2019,03,30,12,14,12.90
2019,03,30,12,15,13.00
2019,03,30,12,16,13.10
2019,03,30,12,17,13.20
2019,03,30,12,18,13.30
2019,03,30,12,19,13.30
2019,03,30,12,20,13.20
2019,03,30,12,21,13.10
2019,03,30,12,22,13.00
2019,03,30,12,23,12.90
2019,03,30,12,24,12.80
2019,03,30,12,25,12.80
2019,03,30,12,26,12.80
2019,03,30,12,27,12.70
2019,03,30,12,28,12.80
2019,03,30,12,29,12.80
2019,03,30,12,30,12.90
2019,03,30,12,31,13.00
2019,03,30,12,32,13.00
2019,03,30,12,33,13.10
2019,03,30,12,34,13.10
2019,03,30,12,35,13.10
2019,03,30,12,36,13.10
2019,03,30,12,37,13.10
2019,03,30,12,38,13.30
2019,03,30,12,39,13.40
2019,03,30,12,40,13.60
2019,03,30,12,41,13.70
2019,03,30,12,42,13.80
2019,03,30,12,43,13.70
2019,03,30,12,44,13.70
2019,03,30,12,45,13.70
2019,03,30,12,46,13.70
2019,03,30,12,47,13.70
2019,03,30,12,48,13.70
2019,03,30,12,49,13.80
2019,03,30,12,50,13.90
2019,03,30,12,51,13.90
2019,03,30,12,52,14.00
2019,03,30,12,53,14.20
2019,03,30,12,54,14.20
2019,03,30,12,55,14.20
2019,03,30,12,56,14.10
2019,03,30,12,57,13.90
2019,03,30,12,58,13.90
2019,03,30,12,59,13.80
2019,03,30,13,00,13.80
2019,03,30,13,01,13.80
2019,03,30,13,02,13.80
2019,03,30,13,03,13.80
2019,03,30,13,04,13.80
2019,03,30,13,05,13.70
2019,03,30,13,06,13.70
2019,03,30,13,07,13.70
2019,03,30,13,08,13.80
2019,03,30,13,09,13.90
2019,03,30,13,10,14.00
2019,03,30,13,11,14.00
2019,03,30,13,12,13.90
2019,03,30,13,13,13.80
2019,03,30,13,14,13.80
2019,03,30,13,15,13.90
2019,03,30,13,16,13.90
2019,03,30,13,17,14.00
2019,03,30,13,18,14.10
2019,03,30,13,19,14.20
2019,03,30,13,20,14.20
2019,03,30,13,21,14.20
2019,03,30,13,22,14.20
2019,03,30,13,23,14.20
2019,03,30,13,24,14.20
2019,03,30,13,25,14.20
2019,03,30,13,26,14.10
2019,03,30,13,27,14.10
2019,03,30,13,28,14.10
2019,03,30,13,29,14.10
2019,03,30,13,30,14.20
2019,03,30,13,31,14.20
2019,03,30,13,32,14.30
2019,03,30,13,33,14.40
2019,03,30,13,34,14.40
2019,03,30,13,35,14.40
2019,03,30,13,36,14.10
2019,03,30,13,37,14.00
2019,03,30,13,38,13.80
2019,03,30,13,39,13.60
2019,03,30,13,40,13.30
2019,03,30,13,41,12.90
2019,03,30,13,42,12.70
2019,03,30,13,43,12.80
2019,03,30,13,44,12.70
2019,03,30,13,45,12.50
2019,03,30,13,46,12.40
2019,03,30,13,47,12.50
2019,03,30,13,48,12.60
2019,03,30,13,49,12.80
2019,03,30,13,50,12.90
2019,03,30,13,51,13.00
2019,03,30,13,52,13.10
2019,03,30,13,53,13.20
2019,03,30,13,54,13.30
2019,03,30,13,55,13.40
2019,03,30,13,56,13.50
2019,03,30,13,57,13.60
2019,03,30,13,58,13.50
2019,03,30,13,59,13.60
2019,03,30,14,00,13.50
2019,03,30,14,01,13.30
2019,03,30,14,02,13.20
2019,03,30,14,03,13.10
2019,03,30,14,04,12.90
2019,03,30,14,05,12.80
2019,03,30,14,06,12.70
2019,03,30,14,07,12.60
2019,03,30,14,08,12.60
2019,03,30,14,09,12.60
2019,03,30,14,10,12.70
2019,03,30,14,11,12.60
2019,03,30,14,12,12.50
2019,03,30,14,13,12.50
2019,03,30,14,14,12.50
2019,03,30,14,15,12.40
2019,03,30,14,16,12.30
2019,03,30,14,17,12.30
2019,03,30,14,18,12.30
2019,03,30,14,19,12.30
2019,03,30,14,20,12.30
2019,03,30,14,21,12.40
2019,03,30,14,22,12.40
2019,03,30,14,23,12.40
2019,03,30,14,24,12.40
2019,03,30,14,25,12.40
2019,03,30,14,26,12.40
2019,03,30,14,27,12.50
2019,03,30,14,28,12.50
2019,03,30,14,29,12.50
2019,03,30,14,30,12.40
2019,03,30,14,31,12.50
2019,03,30,14,32,12.50
2019,03,30,14,33,12.60
2019,03,30,14,34,12.60
2019,03,30,14,35,12.70
2019,03,30,14,36,12.90
2019,03,30,14,37,12.90
2019,03,30,14,38,13.00
2019,03,30,14,39,13.00
2019,03,30,14,40,12.90
2019,03,30,14,41,12.80
2019,03,30,14,42,12.70
2019,03,30,14,43,12.60
2019,03,30,14,44,12.50
2019,03,30,14,45,12.70
2019,03,30,14,46,12.90
2019,03,30,14,47,13.00
2019,03,30,14,48,13.10
2019,03,30,14,49,13.00
2019,03,30,14,50,12.90
2019,03,30,14,51,12.90
2019,03,30,14,52,12.90
2019,03,30,14,53,12.90
2019,03,30,14,54,12.90
2019,03,30,14,55,13.00
2019,03,30,14,56,13.10
2019,03,30,14,57,13.00
2019,03,30,14,58,13.10
2019,03,30,14,59,13.10
2019,03,30,15,00,13.20
2019,03,30,15,01,13.20
2019,03,30,15,02,13.10
2019,03,30,15,03,13.00
2019,03,30,15,04,12.90
2019,03,30,15,05,12.80
2019,03,30,15,06,12.80
2019,03,30,15,07,12.80
2019,03,30,15,08,13.00
2019,03,30,15,09,13.10
2019,03,30,15,10,13.20
2019,03,30,15,11,13.10
2019,03,30,15,12,13.00
2019,03,30,15,13,13.00
2019,03,30,15,14,13.00
2019,03,30,15,15,13.00
2019,03,30,15,16,12.90
2019,03,30,15,17,12.80
2019,03,30,15,18,12.80
2019,03,30,15,19,13.00
2019,03,30,15,20,13.10
2019,03,30,15,21,13.20
2019,03,30,15,22,13.10
2019,03,30,15,23,13.10
2019,03,30,15,24,13.10
2019,03,30,15,25,13.10
2019,03,30,15,26,13.20
2019,03,30,15,27,13.50
2019,03,30,15,28,13.50
2019,03,30,15,29,13.50
2019,03,30,15,30,13.40
2019,03,30,15,31,13.40
2019,03,30,15,32,13.40
2019,03,30,15,33,13.30
2019,03,30,15,34,13.30
2019,03,30,15,35,13.30
2019,03,30,15,36,13.40
2019,03,30,15,37,13.40
2019,03,30,15,38,13.40
2019,03,30,15,39,13.30
2019,03,30,15,40,13.40
2019,03,30,15,41,13.50
2019,03,30,15,42,13.60
2019,03,30,15,43,13.60
2019,03,30,15,44,13.60
2019,03,30,15,45,13.70
2019,03,30,15,46,13.70
2019,03,30,15,47,13.70
2019,03,30,15,48,13.70
2019,03,30,15,49,13.70
2019,03,30,15,50,13.80
2019,03,30,15,51,13.80
2019,03,30,15,52,13.90
2019,03,30,15,53,13.90
2019,03,30,15,54,13.80
2019,03,30,15,55,13.60
2019,03,30,15,56,13.50
2019,03,30,15,57,13.50
2019,03,30,15,58,13.50
2019,03,30,15,59,13.50
2019,03,30,16,00,13.50
2019,03,30,16,01,13.50
2019,03,30,16,02,13.50
2019,03,30,16,03,13.40
2019,03,30,16,04,13.30
2019,03,30,16,05,13.30
2019,03,30,16,06,13.30
2019,03,30,16,07,13.40
2019,03,30,16,08,13.40
2019,03,30,16,09,13.40
2019,03,30,16,10,13.40
2019,03,30,16,11,13.50
2019,03,30,16,12,13.50
2019,03,30,16,13,13.40
2019,03,30,16,14,13.30
2019,03,30,16,15,13.30
2019,03,30,16,16,13.50
2019,03,30,16,17,13.60
2019,03,30,16,18,13.70
2019,03,30,16,19,13.60
2019,03,30,16,20,13.60
2019,03,30,16,21,13.70
2019,03,30,16,22,13.70
2019,03,30,16,23,13.70
2019,03,30,16,24,13.70
2019,03,30,16,25,13.70
2019,03,30,16,26,13.70
2019,03,30,16,27,13.70
2019,03,30,16,28,13.70
2019,03,30,16,29,13.80
2019,03,30,16,30,13.80
2019,03,30,16,31,13.80
2019,03,30,16,32,13.80
2019,03,30,16,33,13.80
2019,03,30,16,34,13.70
2019,03,30,16,35,13.70
2019,03,30,16,36,13.70
2019,03,30,16,37,13.70
2019,03,30,16,38,13.70
2019,03,30,16,39,13.70
2019,03,30,16,40,13.70
2019,03,30,16,41,13.70
2019,03,30,16,42,13.70
2019,03,30,16,43,13.70
2019,03,30,16,44,13.80
2019,03,30,16,45,13.90
2019,03,30,16,46,14.00
2019,03,30,16,47,14.10
2019,03,30,16,48,14.00
2019,03,30,16,49,14.00
2019,03,30,16,50,14.00
2019,03,30,16,51,14.10
2019,03,30,16,52,14.10
2019,03,30,16,53,14.10
2019,03,30,16,54,14.20
2019,03,30,16,55,14.20
2019,03,30,16,56,14.20
2019,03,30,16,57,14.20
2019,03,30,16,58,14.30
2019,03,30,16,59,14.30
2019,03,30,17,00,14.20
2019,03,30,17,01,14.20
2019,03,30,17,02,14.30
2019,03,30,17,03,14.30
2019,03,30,17,04,14.40
2019,03,30,17,05,14.40
2019,03,30,17,06,14.50
2019,03,30,17,07,14.60
2019,03,30,17,08,14.70
2019,03,30,17,09,14.70
2019,03,30,17,10,14.80
2019,03,30,17,11,14.70
2019,03,30,17,12,14.70
2019,03,30,17,13,14.70
2019,03,30,17,14,14.70
2019,03,30,17,15,14.70
2019,03,30,17,16,14.80
2019,03,30,17,17,14.80
2019,03,30,17,18,14.80
2019,03,30,17,19,14.80
2019,03,30,17,20,14.80
2019,03,30,17,21,14.80
2019,03,30,17,22,14.80
2019,03,30,17,23,14.80
2019,03,30,17,24,14.80
2019,03,30,17,25,14.80
2019,03,30,17,26,14.70
2019,03,30,17,27,14.70
2019,03,30,17,28,14.70
2019,03,30,17,29,14.80
2019,03,30,17,30,14.80
2019,03,30,17,31,14.80
2019,03,30,17,32,14.80
2019,03,30,17,33,14.80
2019,03,30,17,34,14.80
2019,03,30,17,35,14.80
2019,03,30,17,36,14.80
2019,03,30,17,37,14.80
2019,03,30,17,38,14.70
2019,03,30,17,39,14.70
2019,03,30,17,40,14.70
2019,03,30,17,41,14.70
2019,03,30,17,42,14.60
2019,03,30,17,43,14.60